Temp
-3 -3 -2 -2 -2 -1 -1 -0 0 1 2 4 6 6 6 7 7 8 11 13 15 16 14 15 14 14 14 14 14 15 15 15 15 16 17 18 18 18 17 17 17 17 17
-3 -3 -3 -2 -2 -2 -2 -1 -1 -1 -0 0 3 4 5 6 7 9 11 13 14 16 16 14 15 15 15 14 15 15 15 15 14 15 16 16 16 17 18 16 18 17 17
-4 -4 -4 -3 -3 -3 -3 -3 -2 -2 -2 -1 -1 -0 0 2 4 7 9 11 12 12 14 15 16 17 14 15 15 15 15 15 14 15 15 16 16 16 15 15 16 16 16
-5 -5 -5 -4 -3 -3 -3 -4 -4 -3 -3 -2 -2 -2 -1 -1 0 3 5 5 6 6 6 7 8 9 12 15 15 15 15 14 14 13 14 14 15 15 14 14 13 14 15
-6 -6 -6 -5 -4 -3 -4 -5 -5 -5 -4 -3 -3 -3 -2 -2 -2 -1 -0 0 0 1 1 2 1 1 3 7 14 14 14 14 13 13 12 13 13 13 13 13 13 13 14
-6 -6 -7 -6 -6 -5 -5 -5 -6 -6 -5 -5 -4 -3 -3 -3 -3 -3 -2 -2 -1 -2 -2 -1 0 1 1 1 0 -0 7 11 10 11 10 10 8 8 8 8 8 9 11
-7 -7 -7 -7 -7 -7 -7 -6 -7 -7 -7 -6 -6 -5 -4 -3 -4 -3 -3 -3 -3 -3 -3 -2 -2 -0 0 1 2 1 -1 -0 3 5 3 1 1 0 2 3 4 4 6
-7 -7 -7 -8 -8 -8 -7 -8 -8 -8 -8 -8 -7 -6 -5 -4 -4 -4 -4 -4 -4 -4 -4 -4 -3 -3 -1 -0 0 0 -1 -3 -3 -2 -2 -2 -2 -1 -1 -0 0 1 3
-7 -7 -7 -8 -8 -8 -9 -8 -8 -8 -9 -9 -8 -7 -7 -5 -5 -4 -4 -4 -4 -4 -5 -4 -4 -4 -4 -2 -1 -2 -3 -4 -3 -3 -4 -4 -3 -1 -2 -0 -2 -1 1
-7 -8 -8 -8 -9 -9 -9 -9 -9 -9 -9 -9 -9 -8 -7 -7 -5 -5 -5 -5 -5 -5 -5 -5 -5 -5 -5 -5 -5 -5 -5 -5 -4 -4 -4 -4 -5 -4 -4 -3 -4 -4 -3
-6 -7 -7 -8 -9 -9 -9 -9 -9 -9 -9 -9 -9 -9 -8 -7 -6 -6 -6 -7 -6 -6 -7 -7 -6 -6 -6 -6 -6 -6 -6 -5 -5 -5 -5 -5 -5 -5 -5 -5 -5 -5 -5
-6 -7 -7 -7 -8 -9 -9 -9 -9 -9 -9 -9 -9 -9 -9 -8 -7 -7 -7 -7 -7 -8 -7 -8 -7 -7 -7 -7 -7 -7 -6 -6 -6 -6 -6 -6 -6 -6 -6 -6 -5 -5 -5
-6 -7 -7 -7 -8 -8 -9 -9 -10 -10 -10 -9 -9 -9 -9 -9 -9 -9 -8 -9 -9 -9 -9 -8 -9 -9 -9 -9 -8 -8 -8 -8 -8 -7 -7 -7 -7 -7 -6 -5 -5 -5 -6
-7 -7 -7 -7 -8 -8 -9 -9 -9 -9 -10 -9 -9 -9 -10 -10 -9 -9 -10 -10 -10 -10 -10 -11 -11 -11 -11 -11 -10 -10 -10 -10 -9 -9 -8 -8 -7 -7 -7 -7 -7 -6 -6
-7 -7 -8 -8 -8 -8 -8 -8 -9 -9 -9 -9 -9 -9 -10 -10 -10 -10 -10 -10 -11 -12 -12 -13 -13 -13 -12 -12 -12 -12 -12 -11 -11 -10 -10 -10 -8 -8 -8 -8 -8 -8 -8
-8 -8 -8 -8 -8 -9 -8 -9 -9 -9 -9 -10 -9 -9 -10 -10 -10 -11 -11 -11 -12 -12 -13 -14 -14 -14 -14 -14 -14 -14 -13 -13 -13 -12 -12 -11 -11 -9 -9 -9 -8 -9 -9
-8 -9 -9 -9 -9 -9 -9 -10 -10 -10 -11 -10 -10 -10 -10 -10 -11 -12 -12 -13 -13 -14 -14 -15 -15 -15 -15 -15 -15 -15 -15 -15 -14 -13 -13 -13 -13 -11 -10 -10 -9 -9 -9
-8 -8 -8 -9 -9 -9 -9 -10 -10 -10 -11 -11 -11 -11 -11 -11 -11 -12 -13 -14 -14 -14 -15 -15 -16 -16 -16 -16 -17 -17 -17 -16 -16 -15 -15 -14 -13 -13 -12 -11 -11 -10 -9
-8 -8 -8 -9 -9 -9 -9 -10 -10 -10 -10 -11 -11 -11 -11 -12 -12 -13 -13 -14 -14 -15 -15 -15 -16 -16 -16 -17 -17 -17 -17 -17 -17 -17 -16 -16 -15 -15 -13 -12 -11 -10 -10
-8 -8 -9 -9 -9 -9 -10 -10 -10 -10 -11 -11 -11 -11 -11 -11 -12 -13 -13 -13 -14 -14 -15 -15 -15 -16 -16 -16 -17 -18 -18 -18 -18 -18 -17 -16 -16 -15 -15 -14 -13 -12 -12
-9 -9 -9 -9 -10 -10 -10 -10 -11 -11 -11 -11 -11 -12 -12 -12 -12 -12 -13 -13 -13 -14 -14 -15 -15 -15 -16 -16 -17 -17 -18 -18 -18 -18 -18 -17 -16 -16 -15 -14 -13 -13 -12
-9 -9 -10 -10 -10 -11 -11 -11 -12 -12 -12 -12 -12 -12 -12 -13 -13 -13 -13 -13 -13 -13 -14 -14 -15 -15 -16 -16 -16 -17 -18 -18 -18 -19 -18 -18 -17 -17 -16 -15 -14 -14 -13
-10 -10 -10 -11 -11 -12 -12 -13 -13 -13 -13 -13 -14 -14 -14 -14 -14 -14 -14 -14 -14 -14 -14 -14 -15 -15 -16 -16 -16 -17 -17 -18 -19 -19 -19 -19 -18 -18 -17 -16 -15 -14 -14
-10 -11 -11 -12 -13 -13 -13 -14 -14 -14 -15 -15 -15 -16 -16 -16 -16 -16 -16 -16 -16 -15 -14 -14 -15 -15 -15 -16 -16 -17 -18 -18 -19 -19 -19 -19 -19 -18 -17 -17 -16 -15 -14
-11 -12 -12 -13 -14 -14 -15 -15 -16 -16 -16 -17 -17 -17 -17 -17 -18 -18 -18 -18 -17 -17 -17 -16 -16 -15 -15 -16 -16 -17 -17 -18 -19 -19 -19 -19 -19 -19 -18 -17 -17 -16 -15
-12 -13 -14 -14 -15 -16 -16 -17 -17 -18 -18 -19 -19 -19 -19 -19 -19 -20 -20 -20 -19 -19 -19 -18 -17 -17 -16 -16 -16 -17 -17 -18 -18 -19 -20 -19 -19 -19 -19 -18 -17 -17 -16
Height
761 753 744 736 728 721 715 710 705 700 695 687 680 681 681 680 682 682 683 683 684 684 687 692 696 703 710 707 712 719 720 723 724 721 721 724 726 729 734 736 737 741 745
765 756 747 739 731 723 717 711 705 700 694 688 679 676 676 675 674 674 674 676 678 678 681 687 692 700 701 697 696 707 714 716 718 715 712 717 720 722 727 730 723 732 738
768 760 751 743 736 728 722 716 709 703 697 691 685 682 679 677 675 671 671 671 675 678 679 682 684 682 688 692 697 701 703 708 708 709 705 710 713 717 722 725 721 722 730
774 765 757 748 742 735 730 722 715 710 704 699 696 692 686 681 675 671 670 670 671 675 677 679 681 683 684 683 685 687 692 697 700 701 702 702 705 710 714 717 718 718 720
780 772 764 756 750 743 736 729 723 719 716 713 707 701 694 684 683 678 675 675 678 680 682 683 685 689 680 677 679 678 680 686 692 692 696 698 700 704 708 712 714 715 714
786 781 773 764 757 751 746 739 735 733 728 722 713 711 705 700 695 688 688 687 685 689 689 691 688 687 686 684 680 684 678 676 680 682 690 695 698 701 704 709 712 713 714
793 787 780 773 767 762 757 752 748 742 738 734 727 721 717 714 705 702 702 699 699 698 702 695 692 697 688 688 688 693 690 687 682 679 687 693 699 703 705 707 707 711 712
800 794 788 782 777 772 766 760 757 754 750 745 741 736 732 725 719 713 711 707 710 713 706 704 704 705 699 688 691 700 694 709 687 704 692 698 703 701 707 707 706 709 707
806 801 796 791 786 780 774 771 769 765 760 756 752 748 742 738 732 726 720 721 724 714 713 710 709 711 712 705 689 702 707 713 701 715 700 710 705 702 708 706 706 710 707
815 811 805 800 794 790 787 782 780 775 771 766 761 758 756 750 746 742 736 733 730 730 723 720 714 716 716 713 706 717 711 708 710 711 714 706 720 711 708 706 709 709 712
821 816 811 807 803 799 796 791 788 784 780 775 771 768 764 763 759 753 750 746 744 741 736 734 736 733 726 715 716 724 727 724 720 722 719 712 712 718 714 712 712 713 711
823 818 816 813 808 805 802 800 795 791 787 784 781 778 775 772 770 768 764 759 754 748 746 745 744 739 731 729 732 733 733 732 727 724 730 723 719 727 721 719 716 714 712
825 821 819 817 814 810 806 804 801 798 795 792 789 786 783 779 775 772 770 766 762 756 756 756 752 746 744 745 746 743 740 734 734 737 737 733 729 727 724 722 720 717 714
826 824 823 821 818 815 811 810 807 804 801 800 797 795 793 789 785 782 778 774 769 764 763 762 759 756 755 754 750 747 746 744 744 742 739 735 730 728 730 729 723 718 714
831 830 827 826 822 819 816 815 814 813 811 808 805 803 800 797 796 793 787 783 779 777 773 769 765 762 758 757 756 756 754 751 749 747 743 739 735 736 734 730 728 723 721
835 834 832 830 827 825 823 821 821 820 817 814 812 809 808 806 803 797 793 788 784 779 774 774 774 773 771 769 768 766 763 759 757 753 749 746 743 741 738 734 731 727 722
839 838 837 834 830 828 827 826 824 823 821 818 816 813 811 809 805 801 797 792 787 782 782 783 783 782 781 779 776 773 770 766 763 758 755 752 748 744 741 737 733 729 724
842 841 840 838 834 832 830 829 827 824 822 820 818 817 814 812 809 806 802 798 793 789 790 790 788 786 784 782 780 777 773 770 767 763 760 756 752 748 744 740 736 731 726
844 843 842 840 838 835 833 831 828 826 824 823 821 819 816 814 810 809 805 800 799 797 796 795 794 792 790 787 784 780 777 773 769 764 761 758 755 751 747 742 737 732 728
845 845 844 843 840 837 835 832 830 828 826 825 822 820 817 814 811 808 806 805 803 800 798 798 796 794 792 788 785 781 776 772 768 765 762 759 755 752 748 744 740 735 732
847 846 845 844 843 840 837 834 833 830 828 827 825 822 820 817 815 812 809 807 804 801 799 798 797 794 791 788 785 781 778 775 772 768 764 761 758 754 751 747 743 738 733
848 847 847 845 844 841 839 836 834 832 830 828 826 824 821 819 816 814 810 807 804 803 802 800 797 794 791 788 785 782 779 776 772 768 765 762 758 755 752 748 743 739 735
848 848 847 845 844 842 840 837 836 834 831 829 827 825 822 820 817 814 810 807 806 804 802 800 797 794 791 789 786 783 779 776 773 770 766 763 759 756 753 749 745 740 736
848 848 847 846 844 842 840 838 837 835 832 830 828 826 824 821 818 815 812 810 806 802 799 798 796 793 791 788 785 783 780 778 774 771 768 765 762 759 755 750 745 741 738
848 848 847 845 843 842 840 839 837 835 832 830 829 827 824 822 818 816 813 810 806 803 799 796 793 791 789 787 784 782 780 777 774 770 767 764 761 757 754 750 746 742 739
848 848 846 845 843 841 840 838 836 834 832 830 828 826 824 821 818 814 812 809 806 802 798 795 792 788 785 784 782 780 778 776 773 769 766 763 760 756 753 750 747 744 741
Wind_Speed
35 34 31 29 27 24 22 19 18 18 19 23 25 30 31 29 26 26 26 27 26 26 33 38 36 40 40 37 33 29 25 23 11 12 24 31 25 29 34 35 31 32 34
34 32 31 30 29 28 27 26 25 23 23 22 17 14 8 8 14 18 21 22 25 27 28 33 36 34 36 35 36 42 31 28 25 13 19 24 25 27 30 32 23 27 32
35 34 33 30 31 31 30 30 30 30 32 33 31 29 22 14 11 4 5 10 11 9 16 25 30 29 30 31 34 34 30 28 30 19 17 23 26 24 24 25 22 24 31
34 35 34 35 30 35 32 34 36 36 37 37 35 31 31 30 27 20 20 24 20 14 13 7 3 7 25 37 39 37 32 29 25 24 15 16 20 21 21 21 19 26 27
31 35 36 35 33 32 37 38 40 40 38 37 37 38 37 42 39 33 36 34 33 31 27 26 29 28 25 2 21 23 28 26 21 17 7 5 8 6 8 7 13 18 22
29 30 33 35 36 36 33 40 40 37 41 43 43 43 42 42 43 45 39 40 43 36 30 32 29 26 29 34 39 36 10 20 16 11 9 4 5 5 4 2 2 1 2
28 29 33 34 35 34 35 34 36 39 40 40 44 44 45 43 46 42 41 42 40 39 33 35 37 31 30 26 28 28 35 34 16 11 12 7 6 3 3 4 2 3 6
28 29 32 33 33 32 33 37 35 36 36 38 40 42 43 47 45 41 40 42 40 38 37 38 37 36 34 35 33 28 35 30 35 23 20 16 10 6 2 2 4 10 16
30 29 30 30 31 34 34 32 32 31 34 37 37 39 42 46 47 41 38 32 29 38 41 46 40 37 34 35 39 33 33 27 26 20 24 17 16 14 9 4 6 5 3
24 25 27 29 30 31 31 30 30 28 30 33 37 38 39 41 45 41 36 30 32 29 35 37 44 40 36 35 36 26 28 30 31 28 24 26 18 19 17 15 9 4 5
26 30 33 31 30 29 28 30 27 28 29 31 32 35 38 40 40 39 37 34 29 28 31 32 33 33 36 37 36 31 27 24 26 26 27 29 29 23 18 14 11 7 5
22 27 31 33 34 32 29 28 29 26 28 28 29 31 33 33 37 36 34 33 30 31 30 30 31 32 34 36 34 29 28 27 27 24 22 23 23 24 22 15 9 6 7
25 27 24 27 31 33 30 29 29 30 29 28 27 29 31 33 32 35 33 32 31 32 30 27 28 31 30 31 30 30 32 30 25 22 20 20 23 22 22 20 16 5 9
25 26 27 26 23 26 31 27 29 31 29 27 26 24 26 31 31 31 30 30 32 31 30 30 28 29 30 30 32 33 32 28 25 22 21 22 24 24 23 22 20 21 10
22 22 23 24 26 27 24 25 27 30 31 26 25 27 25 28 32 28 30 29 27 24 25 28 30 30 30 30 30 30 31 31 28 26 25 24 21 22 22 21 20 19 13
18 20 21 23 24 24 25 25 23 25 26 28 25 26 26 25 26 28 27 29 27 23 27 28 27 26 26 26 25 25 26 30 29 25 25 23 22 20 19 20 20 17 14
18 17 20 21 22 22 24 23 23 21 23 25 26 25 25 23 25 27 26 27 29 31 26 24 24 24 22 22 23 22 23 27 26 27 26 24 23 21 20 18 18 20 15
16 17 19 19 20 21 21 21 22 23 23 25 24 23 23 22 22 23 24 25 27 30 25 22 21 24 23 21 23 24 23 26 27 24 24 23 23 21 20 19 22 17 17
13 13 15 17 16 17 19 18 19 20 21 21 22 22 22 21 20 21 24 27 24 24 22 22 22 22 25 22 21 23 25 26 23 23 22 23 23 22 20 21 22 19 15
12 10 11 14 15 14 16 19 17 18 18 19 20 20 21 23 24 22 21 20 19 18 17 18 18 18 20 22 23 23 24 26 26 23 21 22 23 21 22 21 19 20 19
10 10 11 10 13 14 15 16 16 16 17 17 17 17 17 18 17 20 20 19 18 18 16 14 16 17 17 20 23 20 22 24 25 24 21 20 20 20 21 19 19 18 18
8 8 9 11 11 12 13 14 15 15 16 16 15 16 15 16 16 18 19 16 15 16 16 15 17 17 15 17 20 19 19 22 24 23 22 21 19 19 19 18 18 18 18
5 5 7 8 9 10 12 13 13 14 15 15 15 16 16 16 16 17 18 17 14 16 15 14 14 16 14 15 16 17 18 21 21 19 19 18 18 19 19 17 16 16 16
3 5 6 7 8 10 11 12 12 13 13 13 14 15 16 16 15 16 17 17 19 18 13 13 12 13 14 13 15 15 14 17 17 17 15 16 16 16 16 17 17 14 14
2 4 5 6 8 9 10 10 11 11 12 14 15 14 14 13 16 17 18 19 19 20 20 16 12 13 15 15 15 13 13 14 16 17 14 14 14 14 15 14 14 12 12
2 3 5 6 8 9 9 10 10 10 12 12 13 14 14 12 15 17 18 19 20 21 21 21 19 18 14 15 14 12 12 14 16 14 15 13 13 17 14 13 11 11 11
Wind_Direction
352 349 350 353 359 2 359 351 347 342 336 347 272 263 270 273 271 268 258 267 248 228 209 208 211 215 225 230 240 244 239 224 232 229 223 226 223 226 235 236 237 244 247
354 352 355 2 11 15 13 15 18 19 19 20 34 43 28 298 276 266 264 263 252 238 215 207 214 223 233 231 222 237 236 232 229 227 202 211 213 221 232 233 222 250 252
358 358 3 6 19 20 20 23 26 29 30 33 36 36 28 21 21 23 330 288 280 274 239 234 232 219 241 229 226 222 225 230 231 227 200 203 209 213 217 233 228 231 252
3 5 7 8 18 27 27 31 34 34 34 33 34 36 39 40 43 56 62 67 76 72 66 77 45 260 242 228 220 217 213 213 223 220 204 195 205 220 227 225 227 232 240
9 12 9 12 20 30 33 33 35 37 37 36 36 36 40 44 42 50 60 66 62 59 65 64 60 50 58 81 210 202 201 204 204 190 189 157 159 156 187 216 227 238 244
15 16 16 19 23 26 31 35 35 36 38 37 38 36 36 40 44 53 57 60 66 52 50 54 57 55 54 54 56 50 133 164 165 150 154 143 106 124 154 188 248 25 244
21 21 25 25 26 27 32 37 35 35 36 36 37 36 35 36 44 49 54 57 56 57 51 52 50 55 60 63 58 47 45 46 72 130 116 87 96 37 310 276 229 280 252
26 26 27 31 30 29 34 35 35 37 37 36 36 37 36 34 41 44 49 53 53 56 51 54 53 45 57 61 63 62 51 38 43 45 80 76 78 67 8 279 315 280 282
27 26 28 33 35 35 35 33 33 34 38 39 37 37 37 35 37 37 44 46 45 49 50 48 47 48 46 59 64 59 62 50 51 57 54 64 57 52 37 83 37 333 314
33 34 36 39 42 40 40 38 38 38 41 40 40 38 39 36 39 39 41 42 43 42 44 44 44 43 42 49 54 43 48 38 46 49 41 52 45 46 45 45 36 34 308
49 51 50 48 45 45 43 43 42 40 42 41 40 37 38 39 39 40 40 41 42 45 46 42 41 43 43 45 49 45 37 44 43 39 37 38 32 26 30 33 34 22 4
54 51 51 50 51 50 46 44 43 42 42 41 39 38 35 37 38 39 41 42 44 45 41 41 40 40 44 43 43 43 49 48 42 34 28 28 26 11 17 19 16 19 20
58 54 46 45 49 52 47 42 42 40 40 39 38 36 32 30 33 34 36 38 42 46 44 44 41 43 43 42 38 39 41 35 32 29 21 18 19 17 16 15 21 30 33
55 53 51 48 46 50 58 50 44 39 36 37 35 37 36 33 30 31 31 34 40 44 43 42 41 40 41 39 35 32 32 29 26 20 15 14 20 19 17 14 13 12 7
56 55 51 48 48 53 54 56 56 48 42 37 40 37 39 37 31 33 34 36 37 40 43 40 35 31 30 28 26 24 24 25 20 15 13 10 8 11 13 16 14 15 15
53 48 54 55 56 56 60 59 52 49 46 43 44 44 42 41 34 32 34 37 36 40 43 39 34 31 28 23 20 17 18 17 15 12 12 10 5 1 359 9 15 10 2
70 60 59 58 59 57 55 55 54 53 48 45 42 42 40 36 33 34 36 38 38 42 43 37 33 26 23 22 19 17 12 12 12 15 13 10 4 0 2 359 4 10 359
74 64 59 58 60 57 54 51 48 44 41 39 42 41 37 36 35 34 36 42 42 43 41 36 29 24 18 16 16 16 11 8 8 8 10 11 11 357 354 355 3 354 0
66 64 54 53 51 47 45 44 42 37 35 32 28 31 30 33 36 36 34 42 44 43 39 35 29 25 20 19 11 8 8 6 1 4 8 8 7 2 352 357 4 4 1
58 65 51 44 41 40 34 32 32 29 25 21 19 17 13 12 19 23 24 28 33 36 34 27 23 19 16 17 13 11 14 12 10 6 2 2 3 7 357 355 2 5 4
53 57 51 43 34 40 38 36 33 30 25 18 13 11 7 2 8 6 1 3 9 11 13 10 10 10 8 10 11 13 12 11 8 6 2 359 359 359 1 358 358 360 360
50 49 44 40 40 39 45 38 32 31 28 22 19 15 10 14 8 2 353 341 350 350 349 351 353 358 357 359 4 3 1 359 359 360 358 358 359 1 357 356 355 359 2
57 52 43 44 41 40 33 36 35 32 28 27 22 22 26 23 15 8 9 7 344 326 324 328 335 344 344 343 351 354 350 349 349 351 351 353 355 357 356 352 349 355 358
58 46 44 53 43 34 39 34 30 28 27 26 21 17 14 13 12 16 11 2 359 349 311 299 319 327 331 328 336 340 341 343 351 347 345 344 342 346 348 350 352 353 356
34 39 41 39 32 37 27 24 23 28 29 21 18 14 9 14 357 354 353 352 347 349 353 350 317 311 322 321 325 326 337 343 342 343 336 338 345 347 344 341 347 354 3
45 37 40 28 29 24 23 21 25 23 19 15 7 3 359 1 358 350 350 351 348 345 341 337 335 333 298 298 311 309 326 340 342 336 337 336 342 350 345 346 357 360 357